This is the latest recevied weather packets stored in our database for station/object KI6AOK. If no packets are shown the sender has not sent any weather packets the latest 10 day(s).
| Time | Temp. | Humidity | Pressure | Rain* | Wind** | Luminosity | Snow |
|---|---|---|---|---|---|---|---|
| 1777829215 | 18.33° C | 68% | 1014.2 hPa | 0 mm | - | 243 W/m² | - |
| 1777828913 | 18.33° C | 69% | 1014.2 hPa | 0 mm | - | 242 W/m² | - |
| 1777828609 | 17.78° C | 70% | 1014 hPa | 0 mm | - | 232 W/m² | - |
| 1777828307 | 17.78° C | 70% | 1014.2 hPa | 0 mm | - | 226 W/m² | - |
| 1777828003 | 17.78° C | 71% | 1014.2 hPa | 0 mm | - | 239 W/m² | - |
| 1777827700 | 17.78° C | 72% | 1014.3 hPa | 0 mm | - | 264 W/m² | - |
| 1777827397 | 17.78° C | 72% | 1014.2 hPa | 0 mm | - | 252 W/m² | - |
| 1777827093 | 17.22° C | 74% | 1014.1 hPa | 0 mm | - | 223 W/m² | - |
| 1777826790 | 17.22° C | 72% | 1014.2 hPa | 0 mm | - | 263 W/m² | - |
| 1777826487 | 17.22° C | 73% | 1014.3 hPa | 0 mm | - | 233 W/m² | - |
| 1777826184 | 17.22° C | 71% | 1014 hPa | 0 mm | - | 237 W/m² | - |
| 1777825881 | 17.22° C | 72% | 1014 hPa | 0 mm | - | 234 W/m² | - |
| 1777825578 | 17.22° C | 72% | 1013.9 hPa | 0 mm | - | 220 W/m² | - |
| 1777825277 | 16.67° C | 74% | 1013.9 hPa | 0 mm | - | 207 W/m² | - |
| 1777824973 | 16.67° C | 74% | 1014 hPa | 0 mm | - | 179 W/m² | - |
| 1777824668 | 16.67° C | 76% | 1014.1 hPa | 0 mm | - | 176 W/m² | - |
| 1777824366 | 16.67° C | 76% | 1014.1 hPa | 0 mm | - | 160 W/m² | - |
| 1777824067 | 17.22° C | 75% | 1014.2 hPa | 0 mm | - | 161 W/m² | - |
| 1777823764 | 16.67° C | 76% | 1013.9 hPa | 0 mm | - | 183 W/m² | - |
| 1777823461 | 16.67° C | 77% | 1013.8 hPa | 0 mm | - | 183 W/m² | - |
| 1777823158 | 16.11° C | 79% | 1013.9 hPa | 0 mm | - | 183 W/m² | - |
| 1777822855 | 16.11° C | 79% | 1014 hPa | 0 mm | - | 186 W/m² | - |
| 1777822553 | 15.56° C | 80% | 1013.9 hPa | 0 mm | - | 174 W/m² | - |
| 1777822250 | 15.56° C | 80% | 1014 hPa | 0 mm | - | 161 W/m² | - |
| 1777821948 | 15.56° C | 82% | 1014 hPa | 0 mm | - | 139 W/m² | - |
* Rain latest hour (hover to see other rain measurements)
** Current wind speed in m/s (hover to see current wind gust speed)